Location: Allie Creek
(37.5926°N, 89.8526°W)
Time: 23:28:28
(UTC+00:00)

Meteor 1-27 Rocket - Pass Details

Date: 17 April 2024
Orbit: 829 x 909 km, 81.3° (Epoch: 28 May)

Event Time Altitude Azimuth Distance (km) Brightness Sun altitude
Exits shadow 07:46:13 32° 76° (ENE) 1,450 5.1 -35.6°
Drops below altitude 10° 07:50:35 10° 29° (NNE) 2,513 6.9 -35.1°
Sets 07:53:12 0° 20° (NNE) 3,441 7.8 -34.8°
